Yakima, WA
on Sunday, February 3, 2013

Sunday
Previous Day Next Day
Daily Summary
 ActualAverageRecord
Temperature
Mean Temperature °F 34°F  
Max Temperature 45°F 43°F 61°F (1962)
Min Temperature 25°F 25°F -23°F (1950)
Degree Days
Heating Degree Days 30 31  
Month to date heating degree days 78 93  
Since 1 July heating degree days 3347 3811  
Cooling Degree Days 0 0  
Month to date cooling degree days 0 0  
Year to date cooling degree days 0 0  
Moisture
Dew Point 29°F   
Average Humidity 77    
Maximum Humidity 92    
Minimum Humidity 62    
Precipitation
Precipitation 0.00 in 0.02 in 0.37 in (1998)
Month to date precipitation 0.00 0.08  
Year to date precipitation 0.10 1.22  
Snow
Snow 0.00 in 0.10 in 1.50 in (1950)
Month to date snowfall 0.0 0.3  
Year to date snowfall 1.1 5.6  
Since 1 July snowfall 15.3 18.6  
Snow Depth 0.00 in   
Wind
Wind Speed 2 mph   
Max Wind Speed 12 mph   
Max Gust Speed 25 mph   
Visibility 7 miles   
Events     

Key: T is trace of precipitation, MM is missing value
Source: NWS Daily Summary
Time(PST)TemperatureDew PointHumidity Pressure Visibility Wind DirectionWind SpeedGust SpeedPrecipitationEvents Conditions
12:53 AM 28.0°F 25.0°F 88% 30.27 in 8.0 miles Calm Calm - N/A   Clear
1:53 AM 27.0°F 23.0°F 85% 30.28 in 7.0 miles Calm Calm - N/A   Clear
2:53 AM 26.1°F 21.9°F 84% 30.27 in 7.0 miles West 6.9 mph - N/A   Clear
3:53 AM 28.0°F 24.1°F 85% 30.25 in 7.0 miles East 3.5 mph - N/A   Clear
4:53 AM 25.0°F 21.0°F 85% 30.26 in 6.0 miles Calm Calm - N/A   Clear
5:53 AM 27.0°F 24.1°F 89% 30.27 in 7.0 miles West 6.9 mph - N/A   Clear
6:53 AM 28.9°F 25.0°F 85% 30.26 in 7.0 miles Calm Calm - N/A   Clear
7:53 AM 28.9°F 25.0°F 85% 30.28 in 5.0 miles Calm Calm - N/A   Clear
8:53 AM 33.1°F 28.0°F 82% 30.27 in 6.0 miles Calm Calm - N/A   Haze
9:53 AM 33.1°F 28.9°F 85% 30.27 in 6.0 miles Calm Calm - N/A   Mostly Cloudy
10:53 AM 37.0°F 30.0°F 76% 30.27 in 6.0 miles Calm Calm - N/A   Haze
11:53 AM 41.0°F 30.9°F 67% 30.24 in 10.0 miles Calm Calm - N/A   Clear
12:53 PM 42.1°F 30.9°F 65% 30.22 in 9.0 miles Calm Calm - N/A   Clear
1:53 PM 44.1°F 32.0°F 63% 30.18 in 10.0 miles Calm Calm - N/A   Clear
2:53 PM 44.1°F 32.0°F 63% 30.19 in 10.0 miles Calm Calm - N/A   Clear
3:53 PM 43.0°F 33.1°F 68% 30.19 in 10.0 miles West 6.9 mph - N/A   Clear
4:53 PM 41.0°F 32.0°F 70% 30.19 in 9.0 miles Calm Calm - N/A   Partly Cloudy
5:53 PM 39.9°F 32.0°F 73% 30.19 in 8.0 miles ESE 3.5 mph - N/A   Mostly Cloudy
6:53 PM 37.9°F 30.9°F 76% 30.20 in 8.0 miles West 3.5 mph - N/A   Partly Cloudy
7:53 PM 37.4°F 32.0°F 81% 30.17 in 7.0 miles West 4.6 mph - N/A   Overcast
8:53 PM 37.0°F 32.0°F 82% 30.19 in 6.0 miles NW 3.5 mph - N/A   Haze
9:53 PM 36.0°F 30.9°F 82% 30.18 in 6.0 miles Calm Calm - N/A   Haze
10:53 PM 35.1°F 30.9°F 85% 30.17 in 5.0 miles West 4.6 mph - N/A   Clear
11:53 PM 34.0°F 30.0°F 85% 30.17 in 5.0 miles WSW 4.6 mph - N/A   Clear
Moon Phase
Feb. 03 Feb. 10 Feb. 17 Feb. 25 Mar. 04
Sunrise:07:22 AM (PST) Moon Rise:12:57 AM (PST)2/3
Sunset:05:09 PM (PST) Moon Set:10:48 AM (PST)2/3

Copyright © 2014 The Weather Underground, Inc.